Location: Newark
(39.9267°N, 1.8017°W)
Time: 22:37:14
(UTC+00:00)

Envisat - Pass Details

Date: 27 October 2019
Orbit: 764 x 766 km, 98.1° (Epoch: 11 November)

Event Time Altitude Azimuth Distance (km) Brightness Sun altitude
Rises 18:07:37 0° 164° (SSE) 3,217 6.1 -11.3°
Reaches altitude 10° 18:09:54 10° 164° (SSE) 2,295 5.4 -11.8°
Maximum altitude 18:14:58 87° 77° (ENE) 772 3.0 -12.7°
Drops below altitude 10° 18:20:05 10° 348° (NNW) 2,310 5.6 -13.7°
Sets 18:22:23 0° 348° (NNW) 3,240 6.3 -14.2°
